User: anonymous   Login
Location: Unspecified
(0.0000°N, 0.0000°E)
Time: 18:19:42
(UTC+00:00)
Language:

STARLINK-5277 - Orbit

View from above orbital plane
View from above orbital plane
View from above satellite
View from above satellite

Ground track
Ground track

The orbit is defined by the following mean orbital elements,

1 55269U          26145.46207943 +.00000000 +00000-0 -62081-5 0 00006
2 55269  69.9989 210.9646 0003815 267.4917  92.5805 14.98336237    05
Epoch (UTC): 25 May 2026 11:05:23
Eccentricity: 0.0003815
inclination: 69.9989°
perigee height: 569 km
apogee height: 575 km
right ascension of ascending node: 210.9646°
argument of perigee: 267.4917°
revolutions per day: 14.98336237
mean anomaly at epoch: 92.5805°

The dashed part of the orbit path shows where the satellite is in the earth's shadow,  

DLR